timestamp,gas_concentrations,,corrected_fluxes_and_quality_flags,,,,,,,,,,storage_terms,,,turbulence,,,footprint,,
ISOdate,CO2_1_1_1,H2O_1_1_1,Tau_1_1_1,QcTau_1_1_1,H_1_1_1,QcH_1_1_1,LE_1_1_1, QcLE_1_1_1,Fc_1_1_1, QcFc_1_1_1,E_1_1_1, QcE_1_1_1,Sa_1_1_1,Sw_1_1_1,Sc_1_1_1,ustar_1_1_1,MO_length_1_1_1,ZL_1_1_1,Fetchmax_1_1_1,Fetch70_1_1_1,Fetch90_1_1_1
yyyymmddHHMM,[µmol+1mol_a-1],[mmol+1mol_a-1],[kg+1m-1s-2],[#],[W+1m-2],[#],[W+1m-2],[#],[µmol+1s-1m-2],[#],[mmol+1s-1m-2],[#],[W+1m-2],[W+1m-2],[µmol+1s-1m-2],[m+1s-1],[m],[#],[m],[m],[m]
201804070030,415.28433189055988,1.4416744605378842,0.70726895118659683,0,-8.8467086142894704,0,2.3147860520035768,0,1.1148861904073275,0,5.09640817757398140E-002,0,-9999.,-9999.,-9999.,0.75332536961973340,4047.0166395352721,5.33726493461622598E-003,104.83578118707550,191.67324366747735,287.16144645187035
201804070100,415.30790122669703,1.4172702783578224,0.53360348629753329,0,-31.826594069494558,0,1.9349491952951490,0,7.76909197693707032E-002,1,4.25860097267216284E-002,0,-9.3279661664201949,-0.92990340777505864,1.97659782659449883E-002,0.65373873860753484,735.36350551958105,2.93732281217004773E-002,106.08209224772807,193.95189777687588,290.57528553289279
201804070130,415.12832175436097,1.4067563023983369,0.58203871295800613,0,-34.105658658928292,0,4.5841856102193104,0,-6.10341023462070975E-002,0,0.10086431374254157,0,-7.3115859903057387,-0.40131111417141568,-0.15081559209489057,0.68227690248277217,780.23216616872162,2.76840675591027881E-002,106.40239122428345,194.53750646013822,291.45263405229349
201804070200,415.12110762857776,1.3940737655525464,0.76020718535914544,0,-32.663019850447100,0,2.3235510973762108,0,0.41261741416370623,0,5.11100752347845369E-002,0,-7.2653191761176057,-0.48494092121599802,-6.06765254218515852E-003,0.77915875689269232,1213.6720771294090,1.77972290926298356E-002,115.26950826575262,210.74942443387570,315.74104137519549
201804070230,415.41551827307933,1.4033781604023206,0.72004879785528220,0,-26.026808630946590,0,6.3520098103793945,0,-0.11792958021163091,1,0.13970401350329367,0,-3.3986866704192851,0.35610688474874441,0.24782406064847740,0.75799303732929013,1402.6313136541244,1.53996276781585943E-002,113.74863727495791,207.96878720577894,311.57514010906232
201804070300,415.42849423342585,1.4482022161812185,0.98686049187096336,0,-12.226941208635617,0,3.2206125146270468,0,0.60971901040968846,0,7.08352209542908590E-002,0,0.78426099831480955,1.7153739606575285,1.09218938112169376E-002,0.88742482930112265,4791.4170150091040,4.50806096241217289E-003,118.29231513451234,216.27607946477212,324.02097769988143
201804070330,415.34940053997667,1.5343867728814804,0.81426063191194664,0,-7.6497017262055591,0,-1.1833595543225310,1,1.4775372157179534,0,-2.60294278850816650E-002,1,2.2293888571691967,3.2966109614093946,-6.65469267143399407E-002,0.80626654613811333,5743.3944378592578,3.76084216985295454E-003,106.42676784624618,194.58207469961093,291.51940539642015
201804070400,415.44459039718396,1.5933720428370470,1.0815986747104962,0,-4.3257469714592016,1,5.9138815676214360,2,1.3731618181515275,1,0.13007594749277823,2,-1.4130478046268602,2.2567796807149816,8.01051876132901491E-002,0.92916518978849849,15544.997215203801,1.38951456220745410E-003,120.68523151365281,220.65109378737665,330.57554638713282
201804070430,415.41489174426630,1.7084111725723765,0.97081958119181089,0,1.6996352303749727,2,-10.970479174140246,1,0.88856022174751748,0,-0.24127128849560134,1,-2.6641851058699197,4.4041713031164340,-2.50054924748727286E-002,0.88008420320443526,-33622.704993474195,-6.42423029443714541E-004,116.58489516186623,213.15437120110477,319.34408987118348
201804070500,415.29696169621923,1.8433048032680681,0.89773681862211085,0,-1.2970225950380307,0,0.78441950221732060,0,0.51676967075650670,0,1.72507304719323531E-002,0,-1.2589153911663180,5.1659609333506982,-9.93214968955712929E-002,0.84621458142237405,39169.127702450016,5.51454711069527528E-004,115.06401340683416,210.37371429254901,315.17815912013657
201804070530,415.21167338102066,1.9177376645034403,0.73910216436211063,0,1.1253788467666594,1,3.3414953386456223,0,-0.22442152894911477,1,7.34740123942143608E-002,0,-3.9838853424322362,2.8529106900969192,-7.18796403536567791E-002,0.76756568242871093,-33691.748857492501,-6.41106524073965117E-004,116.51747220654876,213.03110053533575,319.15940795100516
201804070600,415.41916240264783,1.9528718576689401,0.52732540597207478,0,4.6612631060344194,1,3.2310023731561022,0,1.1018735159734721,0,7.10321572155554609E-002,0,-4.5276064369631923,1.3480081989694361,0.17501505108024853,0.64807249386318400,-4896.5153640918288,-4.41130036237642222E-003,103.89413460198664,189.95161338716008,284.58213056984283
201804070630,416.03221089182620,2.0002384787385346,0.72688839321781373,0,1.3777689518446585,2,-31.135145687599049,1,5.8734970924314434,1,-0.68438594553108345,1,-4.0724065842204222,1.8190768807890940,0.51751585032356773,0.76058494365878160,-26781.991656081889,-8.06512087576387662E-004,120.44219168869174,220.20673947377131,329.90982265339460
201804070700,415.99288899822449,2.0606798703292459,0.59173103630617863,0,-4.1035551595825472,2,15.389561892844313,2,-1.7505983104207969,2,0.33821457829916585,2,-5.0765067631533372,2.3236642716889992,-3.32230435896239268E-002,0.68595072010201485,6596.6436678928831,3.27439241642402210E-003,117.44530769814304,214.72747973192259,321.70089310825455
201804070730,416.39598346367308,2.1332738076182136,0.42322386205190587,0,-3.6089464847638602,0,8.2781517336158927,2,1.8990117550568080,2,0.18189643287379018,2,-4.5464848474110937,2.7931990305545518,0.34079967015748208,0.57993338609646794,4532.6251409163779,4.76545033583629807E-003,119.81620419490264,219.06223468665360,328.19514592621414
201804070800,418.05855397694648,2.1328753428879157,0.43697472166599016,0,0.76733163079267319,0,-105.65330585047170,0,20.918262403857323,0,-2.3214167080475323,0,-1.2558526789757196,-1.53353493548864083E-002,1.4058982066060430,0.58922399787308122,-22358.970543701049,-9.66055210716538788E-004,115.44760739318232,211.07504644062058,316.22888247739769
201804070830,417.10501417292045,2.1443841528833909,0.35180302622092363,0,-6.6409855514900453,0,0.23306150772878542,2,2.3845092699030728,1,5.12032475766085581E-003,2,-2.6026312055245326,0.44308079742788270,-0.80652584825626961,0.52862800888251693,1865.3596645852276,1.15795363275440367E-002,106.93396545026182,195.50939368213056,292.90869821187744
201804070900,417.24015145696279,2.1286132729581597,0.39664670008630443,0,-9.7725438161980662,0,33.622099610350809,0,-2.7554193809206420,1,0.73862350991899406,0,-1.7326318836417971,-0.60730780390426020,0.11432110652445454,0.56126133744589946,1517.0473795819380,1.42381841798193843E-002,115.31298033642746,210.82890524377513,315.86011811172466
201804070930,417.52993681594000,2.1317406727606052,0.36205602583061192,0,-8.7109406630029511,0,-17.320303352345658,1,4.8142755016881216,1,-0.38050018917897621,1,6.56980931300838733E-002,0.12044089229585453,0.24516946673730083,0.53620640352226845,1484.1347601635593,1.45539344403061953E-002,105.66573339853373,193.19066100970446,289.43481414016929
201804071000,416.91954177644141,2.1418893351101249,0.42383795260131019,0,-6.1499296244732484,0,-46.283211139037526,0,9.0224397374382299,1,-1.0167754200049592,0,0.13140104439969646,0.39085218273847627,-0.51643573961383771,0.58014584479555831,2662.5746304185368,8.11244866274589416E-003,111.37400126571814,203.62719522957784,305.07064418707211
201804071030,415.55084911121639,2.1220042916993314,0.57039600924342271,0,-8.5083607052982408,0,17.133148261952417,1,-0.85939029170126335,2,0.37638962393884406,1,-6.57025246650870948E-002,-0.76585395998655992,-1.1580460465326277,0.67300233724477065,3004.4854890719644,7.18925089788730563E-003,116.38129470798712,212.78212463637951,318.78639668501978
201804071100,415.81656000480655,2.1029474460971751,0.48938876468987863,0,-10.141066422438707,0,32.570560997425574,1,-5.4569193768845965,1,0.71549335948734971,1,-1.2157212197958829,-0.73412868528441166,0.22485932728798647,0.62332268861369877,2002.7188000291214,1.07853384108073068E-002,115.78883516914814,211.69891964410340,317.16355822079720
201804071130,415.21917810510547,2.0588400316380429,0.65152524670597400,0,-5.3851941733845692,0,6.2682271035698189,0,0.79246078971313483,0,0.13768858264326975,0,-1.6433697004849139,-1.6997933972638883,-0.50569633182089002,0.71908435465695075,5790.5275135757511,3.73023009550672640E-003,114.16672463765266,208.73318424691018,312.72034616805502
201804071200,415.11888247522620,2.0021628870944492,0.60539252244386332,0,-8.3727729083514841,1,5.3090605169396987,0,-5.91540315726624133E-003,1,0.11660932073357487,0,-2.2769791931592400,-2.1852858545921108,-8.49371906950690536E-002,0.69300922327690218,3333.8151388956644,6.47906350534932854E-003,115.20117103824518,210.62448218695127,315.55385512184438
201804071230,415.32250495994919,1.9528644171401119,0.66728957516088760,0,7.1275185546210578,0,7.8408541865687251,0,-1.0820589246281764,0,0.17220223108879626,0,-2.4344503578199697,-1.9019867388454184,0.17253419152505789,0.72737241796389018,-4528.6862694725905,-4.76959513526105470E-003,109.54832045761782,200.28926844134125,300.06982160839573
201804071300,415.35580276108413,1.8848100173073776,0.89418404217918546,0,37.501452617319380,0,2.2712533321918911,2,3.71886418773517136E-002,0,4.98875645213318272E-002,2,3.1072745568575191,-2.6239874210115923,2.81999163900500983E-002,0.84220169584070492,-1336.0731166731821,-1.61667798943398652E-002,113.24587070226401,207.04956956172038,310.19798457487695
201804071330,415.44496101411158,1.7869403774850456,1.0305994003924839,0,75.205787877183354,0,13.597722630411390,0,0.51593236054790692,0,0.29874179483318969,0,6.2333199457374526,-3.7691729579314792,7.54378729761210620E-002,0.90456909470540980,-825.48403561406451,-2.61664660588282645E-002,121.18168448327651,221.55876815140246,331.93540798436817
201804071400,415.39271405378804,1.7540051949236868,0.94642421966851531,0,101.82877176942868,0,12.636988385280832,0,-0.70987292830513127,0,0.27768675891862404,0,4.9401936326348483,-1.2672076525483371,-4.41733489206979774E-002,0.86716414641255846,-537.11725731264642,-4.02146825593932208E-002,103.52792404339230,189.28206368918248,283.57902311434310
201804071430,415.50361915538792,1.7443576816568078,1.2240642361100726,0,154.71679498896575,0,15.708699592632174,0,0.11080266658126980,0,0.34524832029444469,0,4.8138205333239297,-0.37087509289244414,9.37033564300559368E-002,0.98652373656130043,-520.52401756899349,-4.14966442871908467E-002,121.43638755815971,222.02444660566823,332.63307916658300
201804071500,415.64005075965082,1.7303912081636137,1.2524805583375944,0,185.83730831294460,0,12.744711480386604,0,0.85835035264685189,0,0.28019183980368556,0,8.0834321422563988,-0.53603310058689091,0.11511854923191876,0.99856521756564154,-449.39782321167576,-4.80643182595611937E-002,118.00375312046120,215.74849607095257,323.23056163765813
201804071530,415.76297984904198,1.7644834520731716,1.0666900018651726,0,201.42351643005102,0,11.901834088084284,0,1.7092501217503049,0,0.26175387656735460,0,9.2484858761827820,1.3059678550974960,0.10356447202310916,0.92225272414374793,-326.61837193944905,-6.61322260341324908E-002,108.32669051755008,198.05573929201148,296.72358794040059
201804071600,416.00544194891381,1.8305641633031275,1.2149507077518673,0,283.31169519015492,0,19.335453213142166,0,0.94476764378624267,0,0.42542569327194302,0,11.410431401657611,2.5254702138118379,0.20388288163916712,0.98520182609819096,-283.06187048745312,-7.63084055185646593E-002,122.05458762269545,223.15471348843764,334.32642491856376
201804071630,416.30458788559844,1.8270952138700234,1.4225986974243447,0,301.01266191255877,0,26.290849851442232,0,0.49694879049411256,0,0.57871209995850503,0,11.291997458366007,-0.13227815711723051,0.25109103838731378,1.0670412173809023,-338.46191278047331,-6.38181112390326238E-002,125.18692878545998,228.88163214294616,342.90639264423078
201804071700,416.46503741172336,1.8068287174579039,0.75245834010003110,0,259.77958832557431,0,21.414181196716925,0,-0.38651377586512758,0,0.47153821489677972,0,9.4116397012350568,-0.77132192047985504,0.13446549608208350,0.77663578838088498,-151.20561708910094,-0.14285183590284062,100.42858512315692,183.61548365954263,275.08945364386642
201804071730,416.62552700629618,1.6621661689168794,0.98467159038387109,0,314.61770501661903,0,55.154447225212259,1,1.8171030671886754,0,1.2151473777349835,1,13.886249249930263,-5.4902314464012640,0.13419299281404240,0.88941554930511746,-187.50167793463436,-0.11519896908618629,114.12724060614465,208.66099484452758,312.61219328865445
201804071800,416.68988562849904,1.5885232173387371,1.1664984698395797,0,476.25456536174767,0,17.885072815182959,1,1.1131877136917971,0,0.39432140219826334,1,18.477500303878564,-2.7839956308039735,5.36418488166746227E-002,0.96958978098706294,-160.43397755219800,-0.13463482193460130,105.38832348585275,192.68346721396986,288.67494541134846
201804071830,417.03480380701154,1.4698675376893668,1.1909427897041860,0,407.22711657754252,0,29.091183408401331,0,0.15684880065796492,0,0.64178208812209547,0,15.773786239642059,-4.4710198380359412,0.28672156144028632,0.98097515776952748,-194.28495384855515,-0.11117690573628862,118.92966737063696,217.44136262547784,325.76678421701206
201804071900,417.23549836515497,1.4617177731272255,1.4145878412072603,0,419.97979488378661,0,28.540860447403350,0,0.20583056679426548,0,0.62995852693579313,0,12.905842045123054,-0.30627128310185664,0.16647219610959918,1.0702763506043140,-244.63232888121172,-8.82957706317242519E-002,109.34475958572621,199.91709424511313,299.51223684342807
201804071930,417.17705347555426,1.4280022574977354,1.5997760823172900,0,396.14975470795355,0,18.873825077430713,0,1.6519238553953244,0,0.41666744877274120,0,4.9949991666222919,-1.2656062099373595,-4.84334026965008782E-002,1.1387060685268184,-312.30409826572418,-6.91633575093901776E-002,120.99678625449253,221.22071521891982,331.42894309019954
201804072000,417.37162215619185,1.4150319803924478,1.1407109155191726,0,355.05558944909887,0,27.894758220988230,0,1.9703859634227321,0,0.61606835481321143,0,10.390754726941742,-0.48585793030961089,0.16096789871794950,0.96235391530761916,-210.32378663405382,-0.10269879762854514,112.43940147685834,205.57508660751159,307.98894042349929
201804072030,417.27988775963780,1.3741247151828100,1.3387242540171991,0,356.54452456908939,0,34.200500082169057,1,1.1713818996158309,0,0.75531404366205390,1,-0.65853419984280370,-1.5325907752331898,-7.59019742906509864E-002,1.0424661514050824,-266.22990401903394,-8.11328843000887062E-002,117.47110837467467,214.77465159732614,321.77156515846838
201804072100,417.00513062488648,1.3617736681075907,0.97584891471595669,0,264.93263559942727,0,16.671692853899835,0,0.56895432918723010,0,0.36820755143288786,0,1.0517884106453945,-0.46259920069119803,-0.22728096792432553,0.89014357189839899,-223.05046506320522,-9.68390717942653328E-002,105.15029209074208,192.24826990748781,288.02294054290610
201804072130,416.61658712923736,1.3454367636872222,1.2316121487332603,0,269.29391908707322,0,20.537079900573804,0,1.5265694861853838,0,0.45357383783617305,0,-0.21681013435292859,-0.61197603679422041,-0.32145012235768594,0.99994123470597962,-311.09031446699510,-6.94332127858375975E-002,114.79214011930091,209.87664321340048,314.43345606536218
201804072200,416.56544198307063,1.3401790109393015,1.5381777737967259,0,284.57195414419402,0,24.612504015184200,0,1.2787093811499304,0,0.54371384586028659,0,6.1854348690356167,-0.19672462355446543,-4.22744124821886752E-002,1.1179972299449532,-411.46389697865305,-5.24954926996198182E-002,121.62719803536430,222.37330901387867,333.15573862513622
201804072230,416.84273743605820,1.3240876950614255,1.2039167605364010,0,212.03673172253244,0,21.875240932466898,1,1.6454402629252485,0,0.48328565609056079,1,2.1413616104568556,-0.60183467201652263,0.22912867962929459,0.98924211245650784,-382.56317798471844,-5.64612624607139235E-002,113.79539972130333,208.05428387181567,311.70322969431771
201804072300,416.54808487685074,1.3218566971760330,1.5125727409185143,0,185.99970299205904,0,17.049013983442013,0,1.5798660618579667,0,0.37660149357336298,0,-4.0127207132296059,-8.35110987854853354E-002,-0.24363407422398431,1.1084516757224181,-613.56233524067102,-3.52042470004736499E-002,119.75973210607953,218.95898569743596,328.04046012593693
201804072330,416.64760058086443,1.3093528840190745,1.1148579928335467,0,84.770952907400314,0,10.116952094387852,0,0.90056410905157191,0,0.22344350551596381,0,-3.8064172900182887,-0.46840652411556422,8.23360678461020346E-002,0.95133183951059486,-851.09600087840670,-2.53790406460691655E-002,108.57530365842548,198.51028340462616,297.40457784987933
201804080000,416.87187734052719,1.3310605760195937,0.65929902063679324,0,27.376875361168690,0,2.5279782238858104,2,-0.66225701569227602,1,5.58239254727203524E-002,2,-4.1790836854232456,0.81396199164383110,0.18570422787950783,0.73130029210522707,-1197.2225359567401,-1.80417586131877555E-002,99.165839690068140,181.30678227585648,271.63059827063080
